Location: Bogis-Bossey
(46.3500°N, 6.1667°E)
Time: 18:35:01
(UTC+00:00)

Cosmos 1743 Rocket - Pass Details

Date: 17 August 2022
Orbit: 604 x 631 km, 82.6° (Epoch: 30 September)

Event Time Altitude Azimuth Distance (km) Brightness Sun altitude
Exits shadow 21:29:08 37° 231° (SW) 958 4.4 -23.7°
Maximum altitude 21:30:28 51° 283° (WNW) 773 4.2 -23.8°
Drops below altitude 10° 21:34:45 10° 359° (N) 1,986 6.9 -24.2°
Sets 21:37:03 0° 5° (N) 2,900 7.8 -24.4°
